Weather History for KPNE - November, 2013

Change the Weather History Date:

Tuesday, November 12, 2013

  Actual Average Record
Temperature  
Mean Temperature 41 °F -  
Max Temperature 52 °F 52 °F 69 °F (2012)
Min Temperature 30 °F 35 °F 28 °F (2001)
Degree Days  
Heating Degree Days 24    
Moisture  
Dew Point 24 °F    
Average Humidity 58    
Maximum Humidity 86    
Minimum Humidity 39    
Precipitation  
Precipitation 0.01 in - - ()
Sea Level Pressure  
Sea Level Pressure 30.19 in    
Wind  
Wind Speed 11 mph (NNW)    
Max Wind Speed 20 mph    
Max Gust Speed 29 mph    
Visibility 9 miles    
Events Rain , Snow    
Averages and records for this station are not official NWS values.
T = Trace of Precipitation, MM = Missing Value Source: NWS Daily Summary

Daily Weather History Graph

Daily Weather History Graph

Search for Another Location

Airport or City:

Trip Planner

Search our weather history database for the weather conditions in past years. The results will help you decide how hot, cold, wet, or windy it might be!

Date:

Astronomy

Nov. 12, 2013 Rise Set
Actual Time 6:42 AM EST 4:45 PM EST
Civil Twilight 6:13 AM EST 5:14 PM EST
Nautical Twilight 5:40 AM EST 5:47 PM EST
Astronomical Twilight 5:08 AM EST 6:19 PM EST
Moon 1:58 PM EST (11/12) 1:29 AM EST (11/12)
Length of Visible Light 11h 01m
Length of Day
10h 03m
Waxing Gibbous, 76% of the Moon is Illuminated
Nov 12
Waxing Gibbous
Nov 17
Full
Nov 25
Last Quarter
Dec 2
New
Dec 9
First Quarter

Hourly Weather History & Observations

Time (EST) Temp. Windchill Dew Point Humidity Pressure Visibility Wind Dir Wind Speed Gust Speed Precip Events Conditions
12:54 AM 51.1 °F - 37.0 °F 59% 30.00 in 10.0 mi SW 8.1 mph - N/A   Overcast
1:54 AM 52.0 °F - 37.0 °F 57% 29.99 in 10.0 mi SW 9.2 mph - N/A   Overcast
2:54 AM 52.0 °F - 36.0 °F 54% 29.98 in 10.0 mi WSW 8.1 mph - N/A   Overcast
3:54 AM 51.1 °F - 36.0 °F 56% 29.98 in 10.0 mi WSW 6.9 mph - N/A   Overcast
4:54 AM 50.0 °F - 36.0 °F 59% 29.99 in 10.0 mi NNW 5.8 mph - N/A   Overcast
5:54 AM 43.0 °F 35.1 °F 33.1 °F 68% 30.05 in 10.0 mi North 17.3 mph 28.8 mph 0.00 in   Overcast
6:54 AM 39.9 °F 30.8 °F 30.0 °F 68% 30.11 in 10.0 mi NNW 18.4 mph - 0.00 in Rain Light Rain
7:40 AM 37.4 °F 29.8 °F 32.0 °F 81% 30.15 in 7.0 mi NNW 11.5 mph 24.2 mph 0.01 in Snow Light Snow
7:54 AM 37.0 °F 29.3 °F 33.1 °F 86% 30.17 in 9.0 mi NNW 11.5 mph - 0.01 in   Overcast
8:03 AM 35.6 °F 25.2 °F 30.2 °F 81% 30.17 in 1.5 mi NNW 18.4 mph 26.5 mph 0.00 in Snow Light Snow
8:19 AM 35.6 °F 28.0 °F 30.2 °F 81% 30.17 in 3.0 mi North 10.4 mph - 0.00 in Snow Light Snow
8:36 AM 37.4 °F 31.4 °F 30.2 °F 75% 30.18 in 6.0 mi North 8.1 mph - 0.00 in Snow Light Snow
8:54 AM 37.0 °F 31.6 °F 30.9 °F 79% 30.18 in 9.0 mi North 6.9 mph - 0.00 in   Overcast
9:54 AM 36.0 °F 27.1 °F 24.1 °F 62% 30.20 in 10.0 mi NNW 13.8 mph - N/A   Overcast
10:54 AM 37.9 °F 27.9 °F 21.9 °F 53% 30.21 in 10.0 mi NNW 19.6 mph 27.6 mph N/A   Overcast
11:54 AM 37.9 °F 28.2 °F 19.0 °F 47% 30.20 in 10.0 mi NNW 18.4 mph 27.6 mph N/A   Mostly Cloudy
12:54 PM 37.9 °F 28.9 °F 16.0 °F 41% 30.20 in 10.0 mi NNW 16.1 mph 26.5 mph N/A   Clear
1:54 PM 37.9 °F 30.0 °F 15.1 °F 39% 30.22 in 10.0 mi NNW 12.7 mph 25.3 mph N/A   Clear
2:54 PM 37.0 °F 27.0 °F 15.1 °F 41% 30.24 in 10.0 mi NNW 18.4 mph 27.6 mph N/A   Clear
3:54 PM 37.0 °F 27.4 °F 15.1 °F 41% 30.27 in 10.0 mi NNW 17.3 mph 24.2 mph N/A   Clear
4:54 PM 37.0 °F 28.9 °F 16.0 °F 42% 30.28 in 10.0 mi North 12.7 mph - N/A   Clear
5:54 PM 36.0 °F 26.3 °F 16.0 °F 44% 30.30 in 10.0 mi NNW 16.1 mph 27.6 mph N/A   Clear
6:54 PM 35.1 °F 24.8 °F 15.1 °F 44% 30.32 in 10.0 mi North 17.3 mph 20.7 mph N/A   Clear
7:54 PM 34.0 °F 28.0 °F 16.0 °F 48% 30.34 in 10.0 mi NNW 6.9 mph - N/A   Clear
8:54 PM 32.0 °F 28.7 °F 15.1 °F 50% 30.35 in 10.0 mi NW 3.5 mph - N/A   Clear
9:54 PM 30.9 °F 26.2 °F 15.1 °F 52% 30.35 in 10.0 mi NW 4.6 mph - N/A   Clear
10:54 PM 30.9 °F 27.5 °F 15.1 °F 52% 30.35 in 10.0 mi WNW 3.5 mph - N/A   Clear
11:54 PM 30.9 °F 22.8 °F 15.1 °F 52% 30.36 in 10.0 mi NW 9.2 mph - N/A   Clear